Location: Schommer Observatory
(40.5200°N, 74.4500°W)
Time: 04:58:45
(UTC-04:00)

ISS - Pass Details

Date: 25 May 2018
Orbit: 402 x 407 km, 51.6° (Epoch: 24 May)

Event Time Altitude Azimuth Distance (km) Brightness Sun altitude
Rises 23:48:25 0° 308° (NW) 2,320 0.8 -26.5°
Reaches altitude 10° 23:51:27 10° 339° (NNW) 1,459 0.0 -26.6°
Maximum altitude 23:52:59 13° 7° (N) 1,307 -0.5 -26.7°
Drops below altitude 10° 23:54:32 10° 36° (NE) 1,457 -0.6 -26.8°
Enters shadow 23:55:03 - 43° (NE) 1,566 -0.5 -26.8°
